Theta_e
351 348 347 345 339 334 333 333 328 324 321 323 326 329 331 332 334 336 339 341 342 342 342 341 341 340 338 336 335 337 340 340 338 338 339 339 340 339 339 338 338 337 337 337 336 335 336 336 336 336 336 335 332 333 335 334 333 333 332 332 330 330 332 331 330 329 329 329 330 333 335 335 337 338 338 338 338 338 337 338 338 338 338 338 338
351 347 346 344 339 334 333 333 327 322 322 324 327 330 332 332 334 335 337 340 340 341 341 340 339 337 335 336 338 340 339 338 338 340 340 341 340 338 338 339 339 339 338 336 334 334 336 336 336 337 336 333 331 333 335 335 334 333 332 331 329 327 331 332 330 330 329 330 332 333 335 336 337 337 338 338 338 338 338 338 338 337 338 338 337
350 348 345 344 340 333 333 332 325 322 322 326 328 332 333 331 333 335 336 337 338 338 337 336 337 336 337 339 339 339 338 338 340 341 340 339 339 338 338 340 340 339 339 337 334 334 335 335 336 336 335 333 333 333 335 335 334 333 333 333 332 327 327 331 331 330 330 330 332 332 334 334 335 336 337 338 338 338 338 338 338 338 337 337 337
350 348 345 346 341 333 334 330 323 321 323 327 329 331 330 330 331 333 336 336 337 336 335 335 336 337 338 338 337 337 337 339 340 340 339 336 337 338 340 340 341 340 339 336 334 333 335 337 337 337 335 335 336 335 334 334 334 335 336 335 335 330 325 328 330 329 329 330 330 331 332 332 333 334 335 338 338 338 338 338 338 338 337 337 337
349 347 345 347 339 333 334 328 322 321 325 328 329 329 327 329 330 333 336 338 338 336 336 337 337 338 338 338 337 337 338 340 341 340 338 336 336 338 339 340 340 340 338 336 334 334 337 338 338 338 337 337 337 336 335 334 334 335 336 335 336 334 328 326 329 327 327 329 328 329 329 331 333 333 334 334 336 337 338 338 338 337 336 336 335
349 346 347 346 338 334 333 327 321 322 327 329 329 328 326 328 331 335 337 337 338 338 339 339 339 339 339 339 339 339 339 340 342 341 341 339 336 337 338 339 339 338 337 336 337 338 338 338 338 339 338 338 337 337 336 335 335 335 336 336 336 336 332 326 327 327 326 327 327 328 328 330 331 332 334 332 332 334 337 337 337 335 333 333 332
348 346 347 344 337 333 332 326 320 323 327 330 329 327 326 328 333 336 337 337 338 338 339 340 339 340 340 340 341 340 339 340 341 341 340 339 337 336 337 338 338 338 336 335 337 339 339 338 339 339 338 337 336 337 337 337 336 336 336 336 336 336 334 327 326 327 326 327 327 327 327 328 329 331 334 334 332 332 335 336 335 334 333 331 331
347 347 347 343 337 334 331 324 320 324 329 330 329 327 326 329 334 337 337 337 338 339 338 339 338 339 340 340 341 340 340 340 340 339 338 338 338 338 338 338 337 337 336 335 337 339 339 339 339 338 338 337 336 336 336 336 335 335 335 335 335 336 334 328 326 326 327 328 328 327 327 328 329 331 333 333 333 332 334 335 334 334 333 331 330
347 347 345 342 338 335 330 323 320 325 330 330 330 328 326 330 336 337 336 337 337 337 337 337 337 337 338 339 341 341 341 340 339 339 339 339 339 339 339 338 338 336 335 335 338 338 339 338 339 338 337 337 336 335 334 334 334 334 335 335 335 335 334 329 326 326 327 329 328 327 327 328 329 330 330 331 331 330 331 332 332 332 333 332 330
347 346 344 341 338 335 329 323 322 326 331 331 331 330 327 329 335 337 337 337 337 337 337 338 337 336 335 336 338 339 340 339 339 339 340 340 340 339 338 337 336 334 334 336 338 338 338 339 338 337 337 336 334 334 333 333 334 335 335 335 335 334 332 329 327 325 324 326 327 327 327 328 329 329 329 330 330 329 331 331 330 330 331 331 331
347 346 343 341 337 334 329 323 322 327 331 331 331 332 330 329 333 336 336 337 337 337 338 338 339 338 337 336 336 335 336 337 338 339 340 339 339 339 336 335 334 333 334 335 337 338 338 338 337 336 334 333 333 333 333 334 335 335 335 335 334 333 330 327 326 325 324 324 326 327 328 329 329 330 329 330 330 330 330 330 330 330 330 330 330
346 345 343 342 338 334 328 323 323 328 332 331 332 334 333 331 330 332 334 335 337 338 338 338 339 338 339 338 337 336 336 336 337 338 339 338 339 337 335 335 335 334 333 333 336 338 337 336 334 333 332 332 332 332 333 335 335 335 334 334 333 331 328 326 325 324 323 324 327 328 328 329 329 329 329 329 329 328 329 328 328 328 328 328 328
346 344 343 342 338 335 327 323 324 329 333 333 333 336 337 335 333 333 335 336 338 338 337 336 337 338 339 338 338 338 338 337 337 337 338 338 338 337 336 336 336 334 332 332 335 335 334 333 332 332 332 332 332 332 333 335 336 335 334 333 332 330 327 326 326 323 322 323 327 328 328 328 328 329 329 329 328 328 328 328 328 328 328 328 328
346 344 344 341 338 335 327 324 326 330 334 334 335 339 339 338 337 336 337 338 338 338 335 334 337 338 338 338 338 338 338 338 338 336 336 338 338 337 337 336 336 334 332 331 332 333 332 331 332 332 332 331 331 331 333 335 336 335 334 333 332 330 327 327 327 323 322 323 326 328 329 329 329 330 330 329 329 329 329 328 328 328 328 328 327
345 344 344 341 338 336 330 326 327 332 334 333 337 340 340 339 339 338 338 338 337 337 335 335 336 338 337 336 337 337 337 336 336 335 334 336 337 337 336 336 336 335 333 330 329 330 330 331 331 331 330 330 331 331 332 334 335 335 334 333 333 331 328 328 328 326 324 323 324 326 328 329 329 330 330 329 329 329 328 328 327 327 327 327 326
344 344 344 341 340 338 336 332 331 331 331 334 338 341 340 340 339 337 338 338 337 335 335 335 336 336 335 335 335 336 335 334 335 334 333 334 336 336 334 335 336 335 333 331 329 328 330 330 330 329 329 329 330 331 332 334 335 335 334 334 333 331 328 329 329 328 326 325 325 325 326 328 329 329 330 329 329 328 327 327 327 327 327 327 327
344 344 343 342 341 340 339 337 336 333 332 335 339 341 341 340 339 337 337 336 334 334 334 335 335 335 335 335 335 335 334 334 335 334 333 334 334 335 334 335 337 335 333 332 329 328 329 329 329 328 329 329 330 331 332 333 334 335 335 334 334 332 329 329 330 328 327 326 325 325 326 328 328 329 329 328 328 328 327 327 327 326 326 326 326
344 343 342 342 342 341 339 339 340 337 335 338 339 341 341 341 339 337 335 334 333 333 333 333 333 334 333 334 335 335 336 336 336 336 335 335 334 335 336 337 337 334 332 332 330 328 328 329 329 328 328 329 329 330 331 332 333 334 335 334 334 332 330 329 330 328 327 326 324 324 324 326 327 328 329 327 328 328 328 327 326 325 325 325 325
344 344 342 342 341 341 340 340 340 337 337 339 339 340 341 341 339 337 334 332 332 331 332 333 333 333 333 334 335 336 337 338 337 336 336 335 334 335 336 337 336 334 331 331 331 329 328 329 328 328 328 329 329 330 331 332 333 334 334 334 334 333 331 330 330 329 327 326 325 324 324 326 326 327 328 328 328 328 327 327 326 325 325 325 325
344 343 343 343 341 341 340 340 339 337 339 339 339 340 341 341 339 336 334 333 331 330 332 334 334 334 335 335 337 337 337 336 334 333 334 334 335 335 336 336 335 334 332 331 331 330 329 328 328 328 328 328 329 329 330 331 332 333 335 335 333 333 331 330 330 329 328 327 327 326 326 325 325 328 329 327 327 327 326 326 326 325 324 324 325
344 343 343 343 342 341 340 340 338 337 338 339 339 340 341 341 339 337 335 333 330 331 336 336 337 336 336 337 337 335 332 331 330 330 331 332 334 334 334 334 334 334 332 331 331 330 330 328 327 328 328 328 328 329 330 331 332 333 334 335 334 333 332 330 330 329 328 328 327 328 328 327 326 328 328 326 326 325 326 327 326 325 322 322 325
344 343 344 343 343 342 341 341 338 337 339 340 340 341 342 341 339 337 335 333 332 336 338 337 337 335 334 335 333 330 330 331 329 327 327 329 331 331 331 330 331 332 332 332 330 329 329 329 328 328 328 328 328 328 329 330 331 332 333 335 334 333 332 331 330 329 329 328 328 328 329 330 328 327 325 324 325 325 326 327 326 325 322 322 324
343 344 344 343 343 342 342 341 339 337 339 341 341 342 341 340 338 336 334 334 336 338 338 338 336 332 330 331 330 331 333 333 330 326 324 325 327 328 329 329 330 330 330 330 329 328 329 329 328 327 327 327 327 328 328 329 331 331 333 335 335 334 332 331 330 330 329 328 328 329 331 332 330 329 327 326 325 326 327 327 326 325 323 322 322
344 343 344 344 343 343 342 341 339 338 340 342 341 341 341 339 337 334 334 335 338 338 337 337 336 332 331 333 332 333 334 334 334 330 325 324 324 325 327 329 329 328 327 326 325 326 326 327 326 326 326 328 329 329 328 329 330 331 332 334 335 334 333 331 331 330 329 329 329 330 331 332 331 331 330 328 327 326 325 323 324 325 323 321 322
344 344 344 344 343 342 342 341 340 339 340 342 341 341 340 338 336 334 334 335 338 338 337 337 336 334 334 335 335 334 335 335 336 333 327 325 325 325 326 327 327 326 325 325 325 324 324 325 325 326 328 330 330 330 330 329 329 329 331 333 334 334 333 332 331 330 330 329 329 330 331 332 332 332 331 330 329 328 325 320 320 324 324 322 322
344 345 345 345 343 342 342 342 340 339 339 341 341 341 340 338 336 335 335 335 337 338 337 337 336 335 334 335 335 335 336 336 336 333 329 327 326 327 327 327 327 327 329 329 329 328 326 325 325 327 330 331 331 330 330 329 328 328 330 332 334 334 334 333 331 330 330 329 330 329 330 332 332 332 331 331 329 328 325 319 318 324 325 322 322
344 345 345 345 343 341 342 342 340 339 338 339 341 341 340 339 336 336 335 333 335 337 336 336 335 335 333 333 334 335 336 336 335 332 330 329 328 328 329 330 329 330 332 332 332 331 329 327 327 329 330 331 331 330 330 329 328 328 329 331 333 334 334 334 331 330 330 329 329 329 330 332 332 332 332 331 330 327 323 316 315 320 323 322 321
343 344 344 345 343 341 342 341 340 339 338 338 340 341 339 338 336 336 334 332 334 336 336 336 336 336 334 333 333 334 336 337 335 332 331 330 329 329 331 332 332 333 333 332 331 330 330 329 329 329 330 331 331 330 330 329 328 328 329 330 332 333 334 333 331 330 330 329 329 329 331 332 332 332 331 331 330 329 323 317 315 317 321 321 322
341 341 343 344 343 340 340 340 339 338 338 339 340 340 339 337 335 333 332 332 333 335 336 337 337 337 336 334 333 333 335 336 336 333 331 330 329 329 330 331 332 331 332 331 330 330 330 329 330 330 330 330 330 330 330 329 329 329 329 330 332 333 334 333 332 331 330 330 329 329 331 332 333 332 331 331 330 329 326 323 323 322 317 315 321
338 340 343 343 343 340 339 339 339 338 338 340 340 340 339 335 331 330 332 334 334 334 337 338 337 337 337 335 334 333 334 335 335 333 330 330 330 330 331 332 332 331 331 331 330 330 330 330 330 330 330 330 330 330 329 329 328 328 328 329 331 333 333 333 332 331 330 330 329 329 331 332 333 332 331 331 330 330 329 327 326 325 317 312 319
336 340 343 342 342 340 339 339 338 338 339 340 340 339 337 332 329 333 334 334 335 335 337 337 337 337 336 336 335 334 334 334 335 334 331 330 331 331 332 333 333 333 333 332 330 331 331 330 330 330 330 330 329 329 328 328 328 328 328 329 331 332 333 333 332 331 330 330 330 330 331 332 332 332 331 331 330 329 330 328 325 324 320 317 318
337 340 341 339 341 340 338 339 338 338 339 339 340 337 334 329 329 334 334 332 335 336 335 336 336 336 336 336 336 335 335 334 334 334 332 332 332 332 333 334 334 333 333 332 331 331 331 330 329 329 329 329 328 328 328 327 327 327 328 330 332 332 333 332 331 331 330 330 330 330 331 332 332 332 331 330 329 329 330 329 327 325 324 322 319
337 338 338 338 340 339 338 339 338 338 339 339 338 335 331 329 329 333 333 331 334 335 333 334 335 335 336 335 335 335 334 334 333 333 333 333 333 333 333 334 334 333 332 332 331 331 331 330 329 329 329 329 328 328 328 327 327 327 328 330 332 333 332 332 331 330 331 331 331 330 330 331 332 332 331 330 329 328 329 329 329 327 326 324 321
334 337 339 339 340 340 338 339 338 337 338 339 337 333 331 330 329 332 332 332 334 334 333 333 333 335 335 335 335 334 334 334 333 333 333 333 334 334 334 334 333 332 332 331 331 331 331 330 329 329 329 328 328 328 328 327 327 327 328 330 332 333 332 331 331 331 331 331 331 331 331 331 331 331 331 331 330 329 328 328 329 329 327 326 324
337 338 339 339 339 340 339 339 338 337 338 338 336 333 331 330 331 333 332 333 335 334 334 333 333 334 335 335 335 334 334 334 334 335 334 335 335 335 334 334 333 332 332 331 331 331 330 329 329 329 328 329 328 328 328 327 327 327 328 331 332 333 332 331 331 331 331 331 332 331 331 331 331 331 331 331 331 329 329 327 327 328 328 328 327
337 338 338 338 339 339 339 339 338 338 338 337 335 332 330 330 333 334 334 335 336 334 335 335 334 334 335 335 335 335 335 334 335 335 335 335 335 334 333 333 332 332 332 332 331 330 330 329 329 329 329 329 329 328 328 328 327 327 328 330 332 332 332 331 331 330 331 331 331 332 332 332 332 331 331 331 331 330 329 328 327 326 327 328 328
337 337 337 338 338 338 338 338 338 337 337 335 332 330 330 331 333 334 334 335 336 335 335 335 335 334 335 335 335 335 335 335 335 335 335 334 333 332 332 332 332 332 332 332 331 330 330 329 330 330 329 329 329 328 328 328 328 328 328 329 331 332 331 331 331 330 330 329 330 332 332 332 331 330 331 331 330 330 329 329 328 326 326 327 328
337 337 337 337 337 337 337 337 337 336 336 334 333 332 331 333 334 333 334 335 335 335 334 335 335 335 335 335 335 335 335 335 335 335 334 334 333 332 331 332 332 332 332 332 331 331 331 330 331 331 329 329 328 328 328 328 328 328 328 329 330 331 331 331 331 331 330 328 329 333 333 331 330 330 331 331 330 330 330 329 328 327 327 327 327
337 337 337 337 337 337 337 337 336 336 336 335 334 334 333 333 333 333 334 335 334 334 334 335 335 335 335 334 334 335 335 335 334 335 334 333 332 332 331 331 331 332 332 332 331 331 331 331 332 332 329 328 328 329 328 328 328 328 328 328 328 329 329 330 330 331 330 329 330 332 332 331 331 331 331 330 330 330 330 330 329 327 327 327 327
336 336 337 336 336 337 337 337 337 336 335 334 334 333 333 333 333 332 333 333 332 333 335 335 335 335 334 334 334 334 335 335 334 334 333 332 332 332 331 331 331 332 331 331 331 331 331 331 332 332 330 328 329 329 328 328 328 328 327 328 328 328 328 329 329 330 330 328 329 331 331 330 330 330 330 330 330 330 329 329 329 328 327 327 327
336 336 337 336 336 336 336 337 337 337 335 334 334 333 332 333 333 332 332 332 332 333 334 334 334 334 333 334 334 334 334 334 334 333 332 332 332 332 331 331 330 331 330 331 331 331 330 331 332 333 331 329 328 328 328 328 328 327 327 327 327 327 327 328 328 329 329 328 328 329 329 329 329 329 329 329 329 329 329 329 329 329 328 327 327
336 336 337 336 336 336 335 336 336 337 336 335 334 333 332 333 332 333 333 333 333 333 334 333 333 333 333 334 334 334 334 333 333 332 332 331 331 331 331 330 330 330 330 331 332 330 330 331 332 332 331 329 328 328 328 328 327 326 326 326 326 326 326 326 327 327 327 328 329 328 328 328 329 329 329 329 329 329 329 328 328 329 328 328 328
336 336 336 335 335 335 335 335 336 336 335 334 334 333 332 333 332 333 334 333 332 333 333 333 333 333 333 334 333 333 333 332 332 332 332 331 331 331 330 330 329 329 330 331 331 330 331 332 331 331 331 330 328 328 328 327 327 326 326 327 326 326 327 326 327 327 327 328 329 329 329 329 328 328 328 329 328 328 328 328 327 327 328 328 327
336 336 335 335 335 335 335 335 335 336 335 334 333 332 333 333 334 334 333 333 332 333 332 332 333 333 333 333 332 332 332 331 332 332 331 331 331 330 330 329 329 330 330 331 331 330 330 331 331 330 330 330 328 327 327 327 327 327 326 325 324 325 328 328 327 327 327 327 328 329 328 328 327 327 328 328 327 328 328 328 328 327 327 327 327
336 336 335 335 334 334 334 334 335 335 334 333 332 333 334 334 333 333 332 332 331 331 332 332 333 333 332 332 332 331 331 332 331 331 331 331 331 330 329 329 329 330 330 330 330 329 330 330 331 330 330 330 329 327 327 328 328 327 326 325 326 327 327 327 326 326 327 327 328 328 328 328 328 327 327 327 326 326 327 327 328 327 327 327 327
335 335 335 334 334 333 333 334 334 333 333 332 333 334 334 334 333 333 332 331 330 331 332 332 332 333 332 332 332 332 331 331 331 331 331 330 330 329 329 329 329 329 330 330 330 330 330 330 330 330 330 330 329 328 328 329 328 327 326 327 328 328 326 326 326 326 326 326 326 327 327 327 327 327 326 326 326 325 325 326 326 326 326 327 327
335 335 335 334 334 333 332 334 333 332 332 332 333 334 334 334 333 333 332 331 331 332 332 332 333 332 332 332 332 332 331 331 330 330 329 329 328 328 328 328 328 328 329 329 329 329 329 329 328 329 329 329 330 329 329 330 328 327 327 327 327 327 326 325 326 326 327 327 326 327 326 326 326 326 325 325 325 325 325 325 324 323 324 326 326
335 334 334 334 333 333 332 333 332 332 333 333 334 334 334 334 333 332 331 331 331 331 332 332 332 332 332 331 331 330 329 329 328 327 327 327 327 327 327 327 326 326 327 327 328 327 327 327 327 327 328 329 329 329 329 329 328 327 328 328 327 327 325 325 325 325 326 327 327 326 326 326 326 325 325 324 324 324 324 323 323 323 323 324 325
335 334 334 334 333 332 332 332 332 333 333 333 334 333 334 333 332 331 330 330 330 331 332 332 332 331 330 330 328 328 327 326 326 325 326 326 326 326 326 325 325 325 325 326 326 326 326 326 326 326 327 328 328 329 329 329 328 328 328 327 327 326 325 325 325 324 324 326 328 326 325 326 325 324 324 323 323 323 323 323 324 324 324 325 325
334 334 334 333 333 332 332 331 332 333 332 333 333 333 334 333 332 331 329 330 330 330 331 331 331 330 328 328 327 326 326 325 325 325 325 325 324 325 325 324 325 324 325 324 324 324 326 326 326 326 327 327 327 328 329 329 328 328 328 327 326 325 325 324 324 324 324 326 327 326 325 325 324 324 324 323 323 323 323 324 324 324 324 325 326
334 334 333 333 333 332 332 332 332 332 332 332 332 332 332 332 331 330 328 328 328 328 329 329 329 328 327 327 326 325 325 325 324 324 324 324 324 324 325 325 324 324 324 323 322 324 326 326 326 326 326 327 328 328 329 329 328 328 328 327 327 326 325 325 324 323 324 325 325 325 325 324 323 322 322 322 322 322 323 323 322 322 322 324 324
Wind_Speed
26 25 25 24 26 27 25 25 24 25 25 25 27 27 27 28 29 29 28 28 28 29 30 30 29 29 28 27 25 25 24 24 24 25 25 24 24 23 22 21 20 20 19 18 17 18 19 19 21 22 21 21 22 24 24 22 22 22 20 20 19 19 20 19 18 19 18 18 17 16 16 16 15 15 19 21 21 21 21 22 22 22 22 21 21
29 27 26 25 28 28 26 25 25 25 25 26 26 25 26 27 28 29 29 28 28 29 29 30 29 28 27 25 24 24 24 25 25 26 25 25 24 23 22 20 20 19 19 18 18 20 22 21 23 22 20 22 23 24 23 21 21 21 20 20 21 20 19 19 19 19 20 19 18 17 15 15 15 16 18 20 21 22 21 22 22 22 21 21 20
29 28 26 26 28 28 26 25 25 26 26 26 25 24 24 25 27 28 29 28 28 28 28 28 26 25 24 23 23 25 25 26 26 25 25 24 24 23 22 20 20 19 19 19 19 21 23 22 22 21 21 22 21 22 22 21 20 20 19 20 21 21 20 19 19 20 21 20 19 18 16 15 16 16 17 18 19 20 21 21 21 21 20 20 20
29 28 26 26 28 29 27 26 26 26 27 26 25 24 23 24 25 27 27 27 26 25 26 25 23 24 23 23 25 26 27 26 25 25 23 23 24 23 22 21 20 19 19 20 20 21 23 22 20 20 21 21 20 20 21 20 19 19 19 19 20 20 20 20 20 21 22 20 18 18 16 15 15 15 15 16 17 18 18 18 19 19 19 19 18
30 28 27 27 28 29 27 26 26 26 27 26 25 23 23 23 24 25 25 25 25 25 24 23 23 24 24 24 25 26 26 25 25 24 23 22 23 23 22 21 20 20 20 20 20 22 22 20 19 20 19 19 19 19 20 19 17 16 16 16 17 17 18 19 20 21 21 20 19 18 16 14 14 14 13 12 14 16 16 16 16 17 17 17 16
30 29 28 28 29 29 27 27 26 27 27 26 25 23 23 23 23 25 25 25 25 25 24 24 24 24 24 24 24 24 24 24 24 23 22 22 22 22 21 20 20 20 21 21 21 22 20 19 19 19 18 18 18 18 17 17 16 14 13 13 14 14 15 17 19 20 19 19 18 17 15 14 16 15 12 10 11 13 14 13 14 14 14 15 15
30 30 29 29 31 29 27 27 26 27 27 26 24 23 22 22 24 25 25 26 26 25 24 24 24 23 23 22 22 22 21 22 23 22 21 20 20 20 20 19 19 19 20 21 22 21 20 19 18 18 18 18 18 17 16 15 14 12 12 12 13 11 13 16 18 19 18 18 17 16 14 14 16 15 12 10 10 11 13 12 12 12 12 13 14
30 30 29 30 31 29 28 26 27 28 27 26 24 23 23 23 24 26 26 26 26 25 24 23 23 23 22 21 22 22 21 21 22 21 19 19 19 19 19 18 19 19 20 21 21 20 19 19 18 18 17 17 17 16 15 14 12 11 11 11 11 10 11 14 15 16 17 18 17 16 15 15 15 13 11 11 11 11 12 11 10 11 11 12 13
29 28 29 31 29 29 28 27 27 28 27 26 25 24 23 24 25 26 26 25 24 24 24 23 22 22 22 21 20 21 22 21 22 21 20 20 20 19 19 18 18 18 20 21 20 20 20 18 18 18 17 16 16 15 13 11 9 9 10 11 11 9 11 13 14 14 16 17 17 16 16 16 15 12 10 10 10 10 11 10 9 10 11 11 12
27 27 29 30 29 29 28 27 27 28 27 26 25 24 24 24 24 25 25 24 23 22 22 21 21 21 22 21 20 20 20 21 21 21 20 20 20 19 18 17 17 19 20 21 20 20 20 19 18 17 16 15 14 14 12 9 8 9 11 12 12 11 11 13 13 14 16 17 17 16 16 16 14 13 12 12 12 12 12 11 10 10 10 11 11
26 27 30 30 29 28 27 26 27 27 27 26 25 24 24 25 25 25 23 23 23 21 21 20 20 20 20 21 21 20 20 20 20 19 19 19 19 18 16 15 16 18 19 20 20 20 19 19 18 17 17 15 14 13 11 9 9 10 12 14 14 13 13 14 14 14 16 17 17 16 16 16 15 15 14 14 13 13 13 12 11 11 11 10 10
26 28 30 29 28 28 27 26 26 27 26 25 25 24 24 24 25 24 23 22 21 21 20 20 19 18 19 20 20 20 20 20 18 18 18 19 18 16 15 15 16 17 17 19 20 19 19 19 18 18 17 15 14 12 11 10 10 11 13 15 15 14 14 14 15 15 15 16 16 16 16 15 15 15 14 13 13 13 12 11 11 12 12 11 10
27 28 30 29 28 28 27 26 26 26 26 25 24 24 23 23 24 23 22 21 21 21 20 19 18 18 19 19 19 19 19 18 17 16 17 17 17 15 15 15 16 16 16 18 19 19 19 19 19 18 16 15 13 13 12 11 11 11 13 14 14 14 14 15 16 16 15 16 17 17 16 14 14 14 13 13 13 13 13 13 13 12 13 12 11
28 29 30 29 29 28 26 26 26 26 26 25 24 23 23 23 22 22 21 21 21 20 20 19 18 19 19 18 18 18 17 16 15 15 15 16 15 15 15 15 15 15 15 17 18 18 19 19 18 17 15 14 13 13 13 13 12 11 12 13 12 13 13 14 15 16 16 15 16 16 16 15 13 13 13 13 13 13 13 13 12 12 12 13 13
30 30 30 29 28 27 26 26 26 26 25 25 24 23 23 22 20 21 21 21 20 20 20 18 19 19 18 17 17 17 16 14 14 14 15 15 15 15 14 14 14 14 14 16 17 18 18 18 17 16 14 14 14 13 14 14 12 11 11 12 11 11 12 13 15 15 15 15 15 15 16 16 14 13 13 13 12 12 12 12 12 12 12 12 12
29 29 28 28 27 26 25 25 26 26 25 25 25 23 23 21 19 20 21 20 20 20 19 18 18 18 17 17 16 16 15 14 14 15 16 15 15 14 13 13 13 12 12 14 16 17 17 17 15 14 14 14 14 14 14 14 13 11 10 10 10 10 10 12 14 14 14 14 14 14 15 15 14 14 13 12 12 11 11 12 12 11 11 12 11
28 28 28 27 27 25 25 25 25 25 25 25 25 23 22 20 19 18 19 20 20 20 19 18 17 17 17 16 16 16 16 15 15 16 16 15 15 14 14 13 13 12 11 12 14 16 16 15 14 13 14 14 14 14 14 13 13 11 10 10 10 10 9 10 12 12 12 13 13 13 13 13 13 14 13 12 12 12 12 11 11 10 10 11 11
26 27 27 27 26 26 26 25 25 25 24 24 24 23 21 20 18 17 18 19 19 19 18 17 16 17 17 16 15 16 16 16 16 16 16 15 15 14 14 13 12 11 11 11 13 15 15 14 13 12 13 13 13 14 13 13 12 11 10 10 10 10 9 8 10 10 11 12 12 12 12 12 13 13 12 12 13 12 11 11 10 11 10 10 11
25 25 26 26 26 26 26 26 25 25 24 24 24 22 20 19 18 17 18 19 19 18 17 17 16 16 16 16 15 15 15 14 15 15 14 14 14 14 13 12 11 10 10 10 12 14 15 13 12 11 12 13 13 13 13 13 12 11 10 10 10 10 9 8 8 9 9 11 12 12 11 11 11 12 12 13 13 12 11 10 10 11 11 11 11
24 25 26 25 26 27 26 26 25 25 24 24 24 22 20 19 18 17 18 19 18 17 18 17 17 17 16 16 15 15 15 14 13 13 13 14 13 13 12 11 10 9 9 8 10 13 14 13 11 11 12 12 12 12 13 13 12 11 10 10 11 10 9 8 8 8 9 10 10 11 10 9 10 11 11 12 12 11 11 10 10 9 10 11 11
24 25 26 26 26 26 26 26 25 25 24 24 24 22 20 19 18 18 17 17 17 17 18 18 17 17 16 16 16 15 15 15 14 13 13 13 12 12 11 11 10 9 8 7 8 11 12 12 11 11 11 11 11 11 12 13 12 10 9 10 12 11 9 8 7 8 8 9 9 10 9 9 9 9 10 10 11 11 11 10 9 8 9 11 11
25 26 26 26 26 25 26 25 24 25 24 24 24 22 20 19 19 18 18 18 18 18 18 18 18 17 16 17 17 16 16 16 15 13 13 13 12 12 11 11 11 10 9 8 8 10 11 11 10 10 10 10 9 9 10 11 12 10 9 10 12 12 10 8 7 7 8 8 8 8 8 8 7 7 8 9 9 10 10 9 8 8 8 10 10
25 25 25 25 25 25 25 25 24 25 25 24 24 22 20 19 19 18 19 20 20 19 19 19 18 17 18 18 17 17 17 16 15 14 14 14 13 12 13 13 12 12 11 10 9 9 9 10 10 9 9 9 8 8 8 10 11 10 9 9 12 12 11 9 8 7 7 7 8 8 8 7 6 7 7 7 8 9 9 8 8 8 8 9 10
25 24 24 24 24 25 25 24 25 26 26 25 24 22 20 20 19 19 20 20 20 20 19 18 17 17 18 18 17 17 16 16 15 14 14 15 15 14 14 13 13 12 11 10 9 9 9 9 9 9 9 8 7 7 7 8 10 10 9 10 12 13 12 10 8 7 6 6 8 8 8 7 6 7 6 6 7 7 7 6 7 7 8 9 10
24 24 24 25 24 25 26 25 26 26 26 26 25 23 21 20 19 19 21 21 20 19 19 18 18 17 17 17 17 16 16 16 15 13 14 15 15 15 14 13 13 13 11 10 9 9 8 8 8 9 8 7 6 6 7 7 10 10 10 11 12 13 12 10 8 6 6 7 8 8 8 7 7 6 5 5 5 4 4 4 6 7 7 8 9
24 24 24 24 24 24 25 26 26 27 27 27 26 23 21 20 20 20 21 21 20 19 18 18 18 16 16 15 15 15 15 15 14 13 13 14 14 14 13 12 12 12 11 10 9 9 8 8 8 8 7 6 6 6 7 7 9 11 10 11 12 13 12 11 9 8 7 7 8 8 8 8 7 5 5 4 4 4 4 4 6 7 6 7 8
21 22 22 22 24 24 24 26 27 27 27 27 26 24 21 20 20 21 20 19 18 18 17 17 17 16 15 14 14 14 14 14 13 13 13 13 13 13 12 12 12 13 12 10 8 8 8 8 7 7 6 5 5 5 6 7 9 10 10 9 10 12 13 12 11 10 8 7 8 8 9 10 7 4 4 4 5 6 5 6 5 6 6 7 8
15 18 21 22 24 25 23 25 27 27 27 27 27 24 21 21 20 20 19 17 16 16 16 16 16 16 15 14 13 13 13 13 13 13 13 12 12 12 12 12 12 12 10 9 7 6 7 7 7 6 5 4 4 4 5 6 8 9 8 7 8 11 13 13 12 11 9 8 9 9 10 11 7 4 4 4 5 7 7 8 7 7 6 6 8
16 19 21 23 24 25 24 25 26 27 27 27 27 24 23 22 21 20 18 16 16 15 15 16 16 16 15 13 12 12 13 13 12 12 12 12 12 12 11 11 10 10 9 8 7 6 6 6 7 6 6 5 4 4 4 5 6 7 6 6 7 9 12 13 12 11 9 9 9 10 11 11 8 5 3 5 5 6 7 8 8 7 6 6 8
16 21 22 24 23 24 25 25 26 27 27 27 26 24 24 23 20 19 17 15 15 14 14 16 17 16 15 13 12 12 11 12 11 11 11 12 11 10 9 9 8 8 8 7 7 6 5 6 7 7 6 6 5 5 4 4 5 5 5 6 7 8 10 12 12 12 11 11 10 11 12 10 8 5 3 5 5 5 6 7 7 6 7 7 8
16 21 25 26 25 26 27 27 26 26 26 26 25 25 24 22 19 18 17 14 14 14 14 16 16 16 14 13 12 11 11 10 10 10 11 11 10 9 7 7 6 6 6 5 5 5 5 7 8 7 6 6 6 6 5 4 4 5 5 5 7 7 9 12 13 13 12 12 11 11 13 10 8 5 5 5 4 5 4 5 7 7 8 8 7
22 25 29 30 30 30 29 28 28 26 26 25 25 26 24 21 18 18 16 14 15 14 15 16 16 16 14 13 12 11 11 10 9 10 10 10 9 8 6 5 5 4 4 4 4 5 6 7 7 7 6 6 6 7 6 5 5 6 5 5 6 7 10 12 14 13 13 12 12 12 13 11 8 7 7 4 5 6 3 2 6 7 8 8 7
32 35 36 36 36 34 31 30 29 28 27 25 25 25 24 20 18 18 16 14 15 15 16 16 15 15 14 13 12 12 11 10 10 9 9 9 8 7 6 5 4 4 4 4 5 6 6 6 6 7 6 6 6 7 6 6 7 7 6 5 6 8 10 13 14 13 13 12 12 12 13 12 9 9 7 4 5 6 2 0 3 5 6 7 7
32 36 33 32 31 30 31 30 29 28 27 26 25 24 23 21 18 18 17 14 14 15 15 15 15 15 14 13 13 12 12 11 11 10 9 8 7 7 5 5 5 4 5 5 6 6 6 6 6 6 6 6 6 7 6 6 7 7 7 6 7 9 11 14 14 13 12 12 12 11 12 12 11 10 8 6 5 5 3 2 2 4 5 5 6
16 25 25 24 24 25 29 29 28 27 26 26 25 24 23 20 18 18 17 14 13 14 14 14 15 15 14 13 13 13 12 12 11 10 9 8 7 6 6 6 6 5 6 6 7 7 7 7 6 6 7 7 7 7 6 6 6 7 7 7 7 9 11 13 13 11 11 12 12 11 12 12 11 10 9 7 5 4 4 3 4 3 3 3 4
9 19 22 22 23 24 27 27 26 26 25 25 24 23 20 18 17 16 16 14 13 14 13 13 13 14 14 13 12 12 12 11 11 10 9 8 8 6 7 7 6 7 7 8 8 8 8 8 7 6 6 8 8 7 6 6 7 7 6 7 8 9 11 12 11 11 11 12 12 12 12 12 10 9 8 6 4 4 4 4 4 5 4 3 3
9 16 20 22 22 22 26 25 24 24 24 23 22 20 18 17 17 16 16 15 14 14 13 13 13 14 14 12 12 12 12 12 11 10 9 8 7 7 7 7 7 8 9 9 9 9 8 8 8 7 6 7 9 8 8 7 7 7 6 7 7 8 8 9 10 10 11 11 12 12 10 9 8 7 6 4 4 5 4 4 3 5 5 4 3
10 14 19 22 21 21 24 25 23 22 22 21 20 18 16 17 17 16 16 15 14 14 13 13 13 14 14 12 12 12 12 12 11 10 9 8 7 7 7 8 8 9 10 10 10 9 9 8 9 9 7 7 9 9 9 9 9 9 8 7 6 6 6 7 8 9 10 10 11 12 9 6 5 4 4 4 4 5 4 4 4 3 2 3 4
12 15 18 21 21 21 24 24 23 21 20 19 17 17 16 17 17 15 15 14 13 13 13 13 13 13 12 12 13 13 12 11 11 10 9 8 8 8 8 8 9 9 10 10 10 10 9 9 9 9 9 8 9 10 10 11 11 11 10 9 7 6 6 5 6 7 7 7 10 11 8 4 3 3 3 3 4 4 4 4 4 3 1 1 2
12 16 19 21 22 23 23 24 23 21 20 18 17 17 17 17 16 15 15 13 13 13 12 12 12 11 11 11 12 12 12 11 11 10 8 8 8 8 9 9 10 10 10 10 10 9 9 9 9 10 11 10 10 10 11 12 14 14 12 10 9 7 7 7 7 6 5 5 7 8 6 3 3 3 3 4 4 4 4 5 5 4 2 2 1
13 16 20 21 22 23 23 24 24 21 20 19 18 18 18 18 17 16 16 14 13 13 13 12 11 11 10 11 11 11 11 11 10 10 9 9 9 9 9 10 10 10 9 9 9 8 8 10 10 10 11 12 13 12 12 14 15 15 13 13 12 10 8 8 8 7 6 4 4 4 4 3 2 3 5 5 5 4 4 5 4 4 3 3 3
16 18 20 21 21 22 23 24 24 22 20 19 19 19 19 19 18 16 15 13 13 14 13 12 11 12 11 11 11 10 10 10 10 10 10 10 10 10 10 10 11 10 10 9 9 8 9 11 12 12 12 13 14 14 14 12 10 12 11 11 11 11 11 10 10 9 6 5 3 3 2 3 3 3 5 6 6 5 4 4 4 4 4 4 5
17 19 20 20 20 21 23 24 24 22 20 20 20 19 19 18 16 15 14 13 12 13 12 12 12 12 12 11 11 10 10 10 11 11 11 10 10 11 11 11 11 12 12 11 10 10 10 11 12 13 13 13 13 16 15 9 10 15 11 6 4 5 8 10 12 11 8 7 6 5 5 3 1 0 4 5 6 6 4 4 3 3 3 4 4
18 19 21 21 21 22 23 24 24 23 21 21 20 19 18 16 14 14 13 12 12 12 11 12 13 13 13 13 12 12 12 12 12 11 10 10 10 11 11 12 12 12 12 11 11 11 10 10 11 12 13 13 13 16 14 9 13 15 8 3 2 3 3 5 9 11 9 9 8 7 6 6 4 3 3 3 4 6 5 5 4 2 3 3 4
18 20 22 21 21 22 23 24 24 23 22 21 19 18 18 17 15 16 14 12 13 13 14 14 15 16 15 14 13 13 13 12 11 10 10 10 11 11 11 12 12 11 10 10 10 11 11 10 11 12 13 14 13 15 15 10 14 12 6 5 3 2 3 4 6 8 9 9 9 7 6 6 6 4 4 5 6 5 4 4 4 3 2 1 3
18 20 21 20 20 21 23 24 24 24 22 21 20 19 18 18 18 18 17 16 16 16 17 18 18 17 16 14 13 13 12 12 11 10 11 11 11 11 11 11 11 11 10 10 10 11 11 10 10 12 13 14 12 15 15 12 14 11 4 6 3 1 7 8 4 3 7 8 8 8 7 7 6 6 7 7 8 9 8 6 6 5 5 5 4
18 20 20 18 19 21 23 24 24 24 23 21 20 19 18 17 18 19 20 21 20 18 18 20 19 17 16 14 14 13 12 13 12 12 12 12 12 11 11 11 10 11 11 11 11 11 11 9 9 10 12 14 13 14 15 13 15 12 5 4 0 2 10 10 5 4 5 6 9 11 9 9 9 9 9 10 11 11 10 8 7 7 9 9 8
17 19 20 18 18 21 23 24 24 24 23 22 20 19 18 17 18 18 19 21 21 20 20 19 18 17 17 16 15 15 14 14 14 13 13 12 12 11 11 10 10 10 10 11 11 9 9 8 8 9 10 13 12 12 13 13 15 13 7 4 2 5 11 9 9 10 6 3 7 9 10 11 11 10 10 11 12 11 10 9 9 10 10 10 9
18 18 18 17 18 20 22 22 23 23 22 21 20 18 17 17 18 18 20 20 20 21 20 19 19 18 19 18 17 16 15 14 13 13 12 11 10 10 10 9 8 8 8 9 8 7 6 6 7 8 9 11 11 11 11 12 14 13 8 5 5 10 11 8 12 13 8 5 4 4 8 11 11 11 11 11 11 10 11 10 10 11 10 11 11
17 17 15 16 17 18 20 20 21 22 20 20 19 18 18 17 18 20 22 21 20 21 20 19 19 20 21 19 18 16 15 13 12 11 10 10 9 9 8 8 7 7 7 6 5 5 5 5 6 7 8 9 10 10 9 11 13 10 8 8 10 13 11 8 11 13 10 7 5 6 9 10 8 10 11 9 9 9 10 10 10 11 11 12 12
15 17 15 15 17 18 19 19 19 20 20 19 18 18 18 18 20 22 24 23 22 21 20 20 21 21 21 19 17 16 14 13 12 11 10 9 9 8 8 8 8 7 6 4 3 4 3 3 4 6 7 7 8 8 7 9 12 9 7 9 11 15 12 8 12 15 13 10 7 8 10 10 9 9 9 8 9 10 11 11 11 11 12 13 13
Wind_Direction
153 153 154 156 154 152 152 148 144 142 139 136 134 134 134 135 137 137 135 134 134 135 137 137 136 137 137 135 133 130 129 128 127 125 124 124 123 122 122 120 120 119 118 117 117 117 114 113 112 110 106 107 108 104 100 97 96 93 92 87 81 84 85 86 91 93 93 97 99 94 87 88 83 76 75 78 83 85 89 89 88 88 87 85 84
152 152 155 156 155 153 153 148 146 143 138 136 133 132 133 135 138 140 139 136 135 134 135 136 136 137 136 133 131 131 131 128 125 124 123 123 123 122 120 119 119 117 117 116 117 117 114 114 114 112 110 112 110 103 101 100 98 95 94 86 79 83 88 88 93 97 97 100 99 95 89 86 84 78 77 79 81 83 86 87 86 85 85 84 81
147 151 156 156 155 155 153 148 147 144 139 136 133 132 133 135 138 141 142 139 136 135 136 136 135 135 132 131 132 132 130 126 125 124 123 124 124 120 118 120 121 119 118 117 116 117 116 116 114 112 112 113 110 104 105 103 99 97 94 85 77 79 89 92 94 102 106 107 107 103 94 82 81 79 78 79 79 81 83 83 84 83 82 81 79
146 149 153 155 156 155 152 150 149 145 140 136 135 134 135 136 137 140 141 140 137 136 136 134 133 131 129 131 133 131 128 126 125 124 123 123 123 121 121 122 121 120 120 120 118 118 117 115 113 113 113 111 108 105 107 104 101 100 94 85 79 78 86 94 96 105 111 111 112 109 98 84 80 80 80 82 82 80 81 81 81 81 81 80 79
146 149 152 155 155 154 152 152 150 145 140 137 137 137 139 137 137 138 136 136 136 135 132 129 128 127 126 127 128 128 126 125 124 123 122 119 120 123 125 123 122 121 121 121 119 118 117 116 115 114 113 111 109 108 108 107 105 105 98 85 80 79 84 94 100 106 112 115 116 112 104 97 93 85 80 81 83 82 81 82 82 82 81 78 76
147 150 154 155 154 153 153 153 151 146 141 138 139 140 142 138 137 135 133 134 134 133 130 129 128 127 127 126 126 126 124 124 125 124 122 119 120 124 125 124 123 124 124 123 121 120 119 118 116 115 114 114 113 109 108 109 109 107 101 88 82 82 83 95 104 108 111 113 115 115 109 108 106 93 80 75 80 84 80 80 81 77 74 72 72
148 151 155 156 153 153 154 154 151 146 142 140 141 141 141 138 136 133 134 135 133 132 132 133 132 131 130 130 130 128 127 128 128 126 123 121 122 124 125 125 124 125 126 126 124 122 121 120 118 117 117 117 116 112 110 110 110 108 103 96 92 88 86 96 107 110 111 111 111 110 105 105 107 96 85 80 81 85 79 75 77 71 65 66 70
149 152 155 155 152 153 155 155 151 147 143 141 142 141 139 136 134 134 137 136 134 134 134 134 133 133 131 133 134 132 132 132 129 124 123 123 124 125 124 125 125 126 128 129 127 124 123 122 120 120 119 117 116 113 112 112 112 111 108 106 105 99 92 98 107 110 111 111 109 108 104 104 104 97 89 84 82 85 83 80 78 72 65 63 66
149 152 154 153 151 154 156 155 151 147 144 143 143 141 140 137 135 136 136 135 135 134 133 133 133 134 135 136 135 132 131 130 126 123 124 126 127 128 127 127 126 129 130 130 128 126 125 124 123 121 119 117 116 113 111 111 111 108 103 106 113 111 100 100 105 107 111 114 113 109 107 108 103 96 89 84 82 83 86 84 77 73 68 63 63
150 153 154 152 152 156 156 154 152 148 145 144 144 142 142 140 137 137 136 135 135 134 133 133 134 135 137 139 138 135 133 130 128 128 130 131 133 133 131 129 128 132 133 131 129 127 127 125 125 122 121 119 116 113 110 108 105 100 99 105 114 114 106 102 103 103 110 118 117 110 110 108 100 95 92 86 85 83 82 79 74 74 73 70 69
151 154 153 151 154 158 156 154 152 149 147 146 145 143 143 142 141 140 138 137 135 134 135 135 136 137 139 141 140 139 138 135 134 135 135 136 139 136 130 126 126 130 133 132 130 129 130 129 127 125 124 121 117 112 107 104 97 94 100 107 110 109 105 102 101 101 108 116 115 113 111 106 98 95 94 90 88 87 84 76 73 74 72 73 72
153 155 153 153 156 157 155 154 153 150 148 148 146 144 143 144 145 144 142 139 137 137 138 138 138 141 142 142 139 139 140 136 136 140 139 140 141 137 130 125 124 126 130 133 133 134 133 131 128 126 124 121 114 108 103 97 92 96 104 108 107 106 103 99 98 101 108 113 112 112 112 107 103 98 95 92 90 91 88 80 76 75 75 76 74
153 154 153 156 157 156 155 154 154 152 150 149 147 145 145 146 147 146 145 143 142 142 141 142 142 143 144 141 139 139 139 134 135 141 145 145 142 138 131 126 126 126 127 132 136 135 134 132 129 127 123 119 110 103 99 94 93 101 109 109 106 104 101 98 96 100 108 112 111 111 109 102 100 100 97 93 93 94 92 88 85 82 81 80 79
153 155 156 158 156 155 156 155 156 153 152 152 149 148 148 148 147 146 147 147 147 146 145 146 144 143 143 141 140 140 138 136 137 142 146 149 145 139 132 129 128 127 125 130 136 135 135 133 129 127 122 118 111 103 99 97 98 105 115 114 108 104 101 99 97 100 106 110 112 115 113 106 102 101 98 95 94 93 93 92 90 86 82 81 79
154 156 157 156 154 155 155 156 156 154 155 155 152 150 150 148 148 149 149 150 151 149 148 149 144 142 143 142 142 140 139 140 143 143 144 149 149 145 137 131 130 128 125 131 139 139 138 134 128 125 121 118 113 105 100 100 102 108 120 120 113 106 103 99 98 100 104 108 112 119 121 118 114 107 101 99 97 96 95 92 89 86 82 80 79
153 155 155 153 153 154 153 155 156 158 160 157 154 152 151 149 148 152 151 151 153 151 150 149 145 143 144 142 142 142 143 144 144 141 140 144 148 148 141 135 134 130 124 130 140 142 139 134 129 125 120 118 114 108 103 103 106 112 124 128 121 111 107 101 99 101 102 105 110 118 121 119 118 112 105 104 101 98 96 94 93 92 89 84 79
153 152 152 151 153 154 153 155 157 160 163 158 155 153 152 150 149 152 153 152 154 153 151 150 147 146 146 143 142 143 144 144 140 137 135 136 140 144 143 140 137 132 125 129 137 144 143 138 132 127 122 118 115 112 108 106 108 117 130 136 131 120 115 104 101 102 101 102 106 116 121 121 120 115 112 110 106 100 98 98 96 95 94 89 83
150 150 151 153 155 156 157 155 157 161 162 159 156 154 153 151 149 151 153 153 154 153 152 150 149 148 148 144 144 145 145 142 137 135 132 131 135 139 140 137 136 134 133 132 135 143 145 142 136 130 125 119 117 118 116 113 110 117 133 144 141 131 124 113 104 103 102 102 105 114 122 124 123 121 119 113 109 107 105 101 97 93 93 90 88
147 149 152 157 158 159 159 156 161 163 162 161 157 155 154 152 149 150 153 155 155 153 148 145 145 146 146 145 145 145 141 137 134 134 132 131 135 136 135 135 136 136 138 135 135 141 144 144 140 132 127 122 122 123 123 121 115 114 127 145 150 142 136 127 110 105 105 103 105 109 115 123 126 124 121 117 117 117 113 105 101 99 97 95 92
147 152 156 162 162 162 161 160 164 164 165 162 157 157 156 153 150 150 154 156 154 149 144 141 142 142 142 143 141 137 131 128 127 131 136 138 138 135 134 135 135 137 140 137 134 139 145 147 143 135 129 127 127 128 129 128 125 118 122 141 155 154 147 139 120 110 108 106 104 104 108 121 127 125 125 126 124 122 115 108 104 100 102 102 95
151 158 162 165 166 165 163 164 166 165 167 163 159 159 156 153 149 151 153 151 148 144 142 140 140 139 140 142 137 130 126 125 126 130 136 137 137 136 136 138 140 142 143 142 141 142 145 147 143 136 130 130 133 133 132 133 132 125 125 140 157 163 158 148 132 119 114 111 105 102 105 111 120 132 137 131 126 123 116 111 107 101 104 105 98
159 163 167 168 167 166 165 165 166 167 168 163 160 158 155 152 149 153 150 144 143 145 144 141 140 139 141 140 135 130 126 125 126 128 130 131 134 136 135 136 138 137 139 143 145 143 140 138 136 134 129 130 137 137 135 138 138 132 130 144 158 165 165 158 145 130 122 117 109 105 109 110 114 129 135 127 121 118 113 112 110 104 102 100 101
162 166 168 168 167 166 166 166 167 169 167 162 160 158 155 151 151 152 147 145 149 151 149 146 143 142 141 138 134 130 127 125 123 125 125 128 130 130 129 128 129 128 132 134 133 136 134 133 131 129 126 126 135 138 137 141 143 138 132 143 157 164 167 165 157 142 131 123 116 113 120 121 114 115 120 115 112 114 115 115 109 105 100 98 100
162 165 166 169 170 167 165 166 169 170 165 162 160 160 157 154 156 154 150 153 155 155 153 149 146 143 142 139 136 132 129 128 125 125 126 128 128 128 127 125 124 121 123 124 125 131 133 135 131 126 124 122 128 132 134 143 149 145 133 135 150 160 166 168 165 156 145 133 122 121 130 130 119 115 109 97 100 112 118 117 112 106 97 96 101
160 162 165 169 170 168 165 168 171 169 165 164 162 162 162 158 160 159 156 159 159 158 154 151 148 146 145 143 141 138 136 134 131 131 130 131 130 129 128 126 122 118 119 120 121 124 130 135 133 130 125 121 121 121 129 142 152 153 141 134 144 156 164 171 172 168 156 142 129 131 142 137 128 124 110 88 78 83 97 106 110 104 97 96 96
158 161 165 165 169 170 168 170 172 171 169 168 165 164 166 164 164 164 161 162 162 160 158 157 155 152 151 149 147 144 141 138 136 136 133 133 133 131 130 128 123 117 116 115 116 117 123 133 137 136 129 124 120 115 119 137 155 161 155 143 146 157 165 173 178 175 163 150 141 145 151 139 132 128 110 94 75 72 77 86 104 105 100 97 95
155 157 158 160 171 174 171 172 173 174 174 172 169 165 168 169 167 166 164 164 162 159 161 163 162 160 159 157 154 148 144 142 141 138 137 137 136 136 134 129 123 119 115 113 116 118 122 133 144 147 139 127 120 116 116 133 156 165 164 155 156 163 168 175 180 178 170 161 153 155 150 137 140 136 102 93 81 74 69 74 93 103 102 93 92
138 142 154 162 172 177 176 175 175 176 176 175 171 167 171 172 167 168 168 166 166 165 165 167 168 165 162 162 160 154 150 148 146 143 141 142 143 142 138 131 125 122 118 112 112 116 126 140 151 158 151 134 125 126 126 135 152 164 168 165 164 168 171 178 184 181 176 169 160 159 149 141 159 158 98 96 89 70 66 69 71 80 93 95 95
138 141 159 169 172 180 183 182 181 179 177 176 172 170 174 172 168 171 168 167 174 173 170 171 169 167 164 166 169 163 158 156 153 149 147 148 149 147 142 133 126 124 118 109 104 107 117 134 149 155 151 145 139 144 153 148 148 153 162 168 163 165 171 179 186 185 180 174 163 158 153 151 174 184 106 110 100 80 79 70 62 66 70 84 97
159 156 164 175 177 183 188 190 189 184 180 178 174 175 176 173 171 170 165 167 175 172 171 172 168 167 167 169 176 172 166 165 162 157 157 156 152 150 143 132 125 120 115 108 106 106 104 116 138 147 147 149 148 149 155 148 143 137 144 162 160 158 168 177 184 186 183 175 164 160 158 162 183 192 130 125 107 99 100 66 53 63 62 73 92
182 173 174 181 186 188 190 194 194 189 185 181 178 179 177 174 171 168 168 169 171 168 166 168 167 168 170 173 178 176 174 175 173 168 165 163 157 154 146 134 129 121 120 116 110 111 111 115 129 141 145 150 148 143 141 134 128 120 121 144 155 158 167 174 183 187 186 177 168 165 164 173 190 179 143 136 104 110 114 60 59 69 69 76 87
195 189 189 189 190 192 191 193 194 193 190 185 181 179 176 176 172 170 176 175 170 166 160 161 167 170 172 176 179 180 184 186 184 178 171 167 161 160 153 141 142 138 143 141 123 119 121 123 129 134 137 143 144 137 137 137 126 121 125 142 158 165 168 175 184 188 187 180 173 171 170 179 187 168 159 148 97 113 147 80 79 76 77 83 83
204 204 198 193 191 192 191 191 193 195 193 188 182 178 178 181 178 176 181 180 171 164 159 161 166 169 174 178 182 184 188 193 190 185 178 172 168 167 162 154 163 168 163 157 147 137 130 131 136 138 134 133 137 136 143 146 135 132 139 154 165 169 171 177 187 190 189 186 180 175 176 182 182 169 173 165 106 109 141 113 98 97 93 92 91
203 203 196 191 188 185 186 190 193 196 194 189 183 180 182 181 178 179 183 181 170 163 162 165 168 172 176 179 184 186 188 193 191 188 183 178 180 178 178 183 183 182 173 164 161 155 145 143 143 144 137 129 132 139 153 154 142 141 146 159 169 170 176 182 188 191 192 193 190 184 178 181 183 178 182 179 137 106 82 31 83 113 106 103 109
189 185 185 188 186 181 181 185 190 195 193 190 187 185 185 179 174 178 181 181 173 167 166 169 173 175 178 180 184 188 189 192 191 191 188 187 193 192 191 194 191 185 177 169 166 161 156 153 147 145 139 134 136 142 155 156 145 146 149 158 168 172 181 187 191 195 198 200 201 199 186 181 182 179 185 189 167 124 98 61 48 69 83 114 130
156 169 178 183 184 182 181 182 186 193 193 190 190 186 183 175 168 171 178 181 177 173 171 173 176 177 179 181 184 189 191 193 193 194 196 197 198 194 186 187 191 184 178 172 168 165 164 159 149 147 144 138 143 148 151 148 142 141 147 158 167 176 184 189 195 198 197 201 210 213 200 189 185 177 182 186 179 164 128 94 53 49 58 105 138
163 168 174 177 178 176 179 184 186 191 192 189 189 186 181 175 168 169 177 179 178 179 179 182 183 180 182 182 183 189 191 189 190 192 195 197 193 185 179 182 189 184 180 178 172 170 169 167 154 148 149 146 151 153 143 134 132 129 135 152 164 175 183 187 195 197 197 203 210 216 212 198 188 172 171 171 180 191 155 126 92 65 57 73 69
166 168 173 175 172 166 172 182 185 189 191 189 188 185 180 174 170 172 176 176 180 186 186 188 188 183 182 184 187 188 188 185 185 187 187 190 186 180 183 185 186 186 185 182 180 175 167 170 164 149 148 155 157 156 144 132 126 120 116 124 143 162 170 174 182 191 198 202 201 209 214 199 181 161 158 156 176 202 184 147 118 93 55 42 39
168 168 173 174 171 167 170 177 183 186 186 185 181 176 173 168 167 170 173 174 178 181 182 184 185 184 182 185 191 190 187 185 183 185 184 186 183 182 190 192 190 189 187 185 185 180 166 167 167 151 149 157 161 159 149 134 120 112 108 105 108 123 136 142 159 176 182 187 193 204 214 201 180 175 172 172 181 201 203 181 151 136 163 351 28
170 166 169 171 171 172 170 173 182 185 180 177 172 168 165 162 163 163 164 168 171 171 175 181 184 184 182 183 189 189 187 186 186 187 185 183 183 188 195 195 192 187 185 188 186 182 170 165 165 155 151 151 155 157 151 136 114 101 97 96 94 94 102 106 111 123 135 160 184 194 206 204 192 199 199 199 198 203 210 201 184 174 196 247 277
169 167 166 167 169 173 172 172 180 185 180 175 171 168 163 158 159 161 164 166 168 172 174 180 184 184 183 184 185 184 185 187 187 185 181 182 185 191 194 191 189 182 182 189 186 183 172 166 166 161 156 150 150 153 153 141 117 101 92 86 82 80 84 92 99 104 115 138 165 171 188 203 201 206 201 194 190 192 199 200 198 203 216 232 244
166 168 166 167 169 173 177 177 179 183 182 179 175 170 167 165 164 166 168 165 167 174 175 176 180 181 182 183 184 183 184 183 181 180 179 183 185 187 188 185 184 179 179 184 187 184 170 170 174 169 165 158 154 157 158 149 128 120 112 93 78 74 74 76 80 82 87 94 96 106 136 202 226 203 184 183 178 176 186 194 203 218 225 235 245
166 167 166 170 172 173 178 180 180 181 182 182 178 172 170 171 171 169 167 164 165 171 172 172 174 176 176 177 181 181 179 178 177 178 178 180 182 182 182 184 183 178 177 181 188 188 176 177 182 180 175 162 156 163 166 163 147 135 122 106 86 78 73 70 71 70 74 81 80 87 90 94 280 154 151 166 170 169 175 184 194 211 226 248 252
169 168 169 173 173 174 177 178 179 179 179 180 179 174 170 169 168 166 165 164 161 163 164 164 168 170 167 167 170 173 173 174 173 175 178 180 179 179 179 182 183 180 180 186 193 195 189 185 186 190 186 171 161 169 178 176 160 148 122 100 102 98 99 83 75 69 72 80 82 92 86 81 82 85 111 125 139 155 177 189 189 196 216 251 258
174 171 173 176 173 174 176 177 178 177 178 179 179 175 167 163 159 157 159 155 150 157 157 156 163 164 160 160 162 167 168 166 167 172 180 180 177 178 179 180 180 179 182 190 195 195 194 191 187 193 197 190 175 175 184 183 172 164 133 125 114 95 158 125 93 70 68 72 76 84 86 94 105 102 100 92 89 104 145 174 165 158 173 242 257
179 177 178 178 175 177 176 176 177 176 177 178 178 177 170 166 163 161 160 155 150 158 161 159 161 160 158 158 159 163 163 161 165 170 176 177 173 173 174 174 174 173 175 179 183 186 190 193 192 194 201 204 194 181 183 184 186 186 153 141 123 123 162 140 113 80 78 79 79 84 87 96 105 99 99 96 90 90 98 111 117 116 105 92 100
180 181 181 180 178 179 178 177 177 176 177 176 178 178 174 173 174 172 169 163 158 161 165 162 159 158 158 158 158 159 160 162 163 164 167 168 167 167 169 170 171 173 174 173 175 181 187 193 198 199 199 204 205 194 189 186 188 198 208 198 237 127 157 151 145 140 108 90 91 92 90 91 93 92 92 95 100 102 102 100 95 102 107 104 102
180 182 183 183 180 180 181 179 177 176 176 177 178 179 179 179 178 174 169 167 162 161 164 161 158 158 158 158 157 156 159 161 161 161 163 164 166 168 169 171 170 170 172 174 177 182 188 196 203 206 202 202 209 209 203 196 191 195 205 216 237 152 156 160 157 142 124 113 102 96 95 92 86 83 84 91 100 106 103 95 89 96 107 111 109
181 185 186 183 179 179 181 179 176 176 176 177 179 181 183 183 178 172 164 162 161 159 161 161 160 160 158 156 157 157 159 160 161 161 163 164 166 168 170 171 167 162 165 172 181 190 198 209 212 213 211 205 208 213 215 210 197 194 196 183 149 144 144 144 148 137 120 128 129 112 107 98 87 82 86 88 90 94 94 91 91 97 104 108 110
181 185 188 182 177 177 178 177 175 176 176 179 181 180 184 185 180 171 162 158 158 158 160 161 161 161 158 157 159 160 160 160 159 157 158 162 164 167 171 175 171 167 167 171 190 208 212 220 219 216 216 210 207 210 218 214 201 198 202 187 157 146 139 133 144 136 119 116 114 120 118 109 94 85 87 91 92 95 97 99 101 101 104 106 109
177 183 189 181 177 178 176 175 175 177 177 180 182 180 183 186 181 172 164 161 160 160 162 163 163 163 160 160 162 162 163 164 162 158 158 161 165 167 170 174 175 174 175 177 206 221 216 217 213 208 208 207 205 205 208 204 201 203 205 200 186 171 163 166 166 149 133 127 118 118 117 107 95 83 85 91 93 97 99 103 104 100 102 105 108